{"data":{"norad_id":23613,"intl_designator":"1995-035B","name":"TDRS 7","alt_names":[],"object_type":"PAYLOAD","status":"ACTIVE","operator":null,"country":"US","launch_date":"1995-07-13","launch_site_code":"AFETR","launch_vehicle":null,"mission":null,"orbit_class":"UNKNOWN","rcs_meters":22.3872,"size_class":null,"mass_kg":null,"dimensions":null,"purposes":["comms"],"wikipedia_slug":null,"has_3d_model":false,"image_url":null,"decayed_at":null,"tle_current":{"epoch":"2026-05-25T00:44:44.352096Z","epoch_age_seconds":72479,"freshness":"FRESH","line1":"1 23613U 95035B   26145.03106889 -.00000250  00000+0  00000+0 0  9996","line2":"2 23613  13.3871 348.3510 0011130  72.6341 282.0830  1.00270588113013","mean_motion":1.00270588,"eccentricity":0.001113,"inclination_deg":13.3871,"raan_deg":348.351,"arg_perigee_deg":72.6341,"mean_anomaly_deg":282.083,"bstar":0,"rev_number":11301,"period_min":1436.1140477206,"perigee_km":35740.000806924,"apogee_km":35833.860247239,"semimajor_km":42165.067527081,"source":"CELESTRAK","updated_at":"2026-05-25T13:38:13.805954Z"}}}